EW9504 Weather Reports


Display with metric or nautical units.
time (UTC)temp
F
wind
direction
speed
MPH
gust
MPH
rain 1hr
in
rain 24hr
in
rain mn
in
humidity
%
barometer
mb
20260502163014 70 16 0.0 7.0 0.00 2.63 0.00 66 1019.6
20260502161513 69 35 1.0 4.0 0.00 2.63 0.00 67 1019.6
20260502151503 65 358 3.0 10.0 0.00 2.65 0.00 74 1019.4
20260502123036 54 31 0.0 0.0 0.00 2.78 0.00 94 1017.8
20260502121535 53 174 0.0 0.0 0.00 2.78 0.00 95 1017.5
20260502114530 53 335 0.0 3.0 0.00 2.78 0.00 94 1017.1
20260502113029 53 13 0.0 1.0 0.00 2.78 0.00 94 1017.0
20260502111527 53 13 0.0 0.0 0.00 2.78 0.00 94 1017.1
20260502110025 53 13 0.0 0.0 0.00 2.78 0.00 94 1016.9
20260502104527 54 23 0.0 0.0 0.00 2.82 0.00 93 1016.7
20260502103022 54 23 0.0 0.0 0.00 2.82 0.00 92 1016.4
20260502101520 55 32 0.0 0.0 0.00 2.82 0.00 91 1016.3
20260502091515 56 335 0.0 10.0 0.00 2.93 0.00 89 1015.1
20260502071506 56 92 2.0 8.0 0.00 3.15 0.00 94 1014.8
20260502070006 56 359 2.0 6.0 0.00 3.15 0.00 94 1014.9
20260502064505 56 32 1.0 6.0 0.00 3.32 0.00 96 1014.9
20260502063001 56 339 1.0 5.0 0.00 3.32 0.00 97 1014.8
20260502061601 56 357 1.0 6.0 0.00 3.32 0.00 98 1014.7
20260502060104 56 332 1.0 7.0 0.00 3.32 0.00 99 1014.6
20260502054614 56 330 2.0 10.0 0.00 3.50 0.00 99 1014.5
20260502053056 56 340 0.0 9.0 0.00 3.50 0.00 99 1014.6
20260502051555 56 32 2.0 9.0 0.00 3.50 0.00 99 1014.4
20260502050053 56 39 2.0 9.0 0.00 3.50 0.00 99 1014.3
20260502044551 55 37 3.0 10.0 0.00 3.93 3.50 99 1014.2
20260502043106 56 360 2.0 8.0 0.00 3.93 3.50 99 1014.3
20260502041612 55 32 1.0 12.0 0.00 3.93 3.50 99 1014.6
20260502040053 56 84 1.0 9.0 0.00 3.93 3.50 99 1014.3
20260502034547 56 17 1.0 5.0 0.00 3.93 3.50 99 1014.3
20260502033043 56 337 1.0 4.0 0.00 3.93 3.50 99 1014.2
20260502031541 56 59 2.0 8.0 0.00 3.93 3.50 99 1013.7
20260502030052 56 349 2.0 8.0 0.00 3.93 3.50 99 1013.5
20260502024537 57 92 2.0 9.0 0.01 3.93 3.50 99 1012.8
20260502023046 57 62 6.0 12.0 0.02 3.93 3.50 99 1012.5
20260502021530 58 108 4.0 9.0 0.04 3.93 3.50 99 1012.1
20260502020028 58 12 1.0 6.0 0.05 3.93 3.50 99 1012.1
20260502014531 58 25 0.0 7.0 0.07 3.92 3.49 99 1012.1
20260502013026 58 359 0.0 4.0 0.06 3.91 3.48 99 1012.0
20260502011523 58 70 2.0 6.0 0.06 3.90 3.47 99 1011.8
20260502010024 59 51 2.0 8.0 0.07 3.89 3.46 99 1011.1
20260502004620 59 20 1.0 4.0 0.12 3.86 3.43 99 1011.2
20260502003020 59 13 1.0 5.0 0.23 3.85 3.42 99 1010.8
20260502001519 59 343 1.0 6.0 0.22 3.84 3.41 99 1010.5
20260502000018 59 357 2.0 7.0 0.23 3.83 3.40 99 1010.5
20260501234517 59 20 1.0 7.0 0.20 3.76 3.33 99 1010.6
20260501233015 60 340 2.0 6.0 0.06 3.62 3.19 99 1010.3
20260501231515 60 110 3.0 12.0 0.06 3.62 3.19 99 1008.4
20260501230031 60 79 2.0 9.0 0.04 3.60 3.17 99 1009.8
20260501224512 60 70 3.0 9.0 0.02 3.57 3.14 99 1009.1
20260501223018 61 52 6.0 13.0 0.12 3.56 3.13 99 1009.0
20260501221510 61 50 3.0 11.0 0.41 3.56 3.13 99 1008.3
20260501220009 62 7 3.0 9.0 0.59 3.56 3.13 99 1008.9
20260501214507 62 129 4.0 10.0 0.62 3.55 3.12 99 1009.2
20260501213007 62 73 2.0 8.0 0.57 3.47 3.04 99 1009.4
20260501211507 62 58 3.0 8.0 0.36 3.19 2.76 99 1009.1
20260501210006 62 34 1.0 5.0 0.24 2.99 2.56 99 1009.2
20260501204505 62 20 2.0 11.0 0.20 2.94 2.50 99 1007.8
20260501203009 62 53 4.0 9.0 0.16 2.90 2.47 99 1007.9
20260501201502 62 28 3.0 7.0 0.11 2.84 2.41 99 1008.2
20260501200001 62 4 1.0 7.0 0.16 2.75 2.31 99 1008.2
20260501194502 62 3 2.0 7.0 0.17 2.74 2.31 99 1007.6
20260501193002 62 335 3.0 11.0 0.18 2.74 2.31 99 1007.6
20260501191601 62 15 1.0 8.0 0.61 2.73 2.29 99 1007.7
20260501190100 62 8 2.0 10.0 0.59 2.63 2.20 99 1008.0
20260501184559 62 8 2.0 10.0 0.71 2.57 2.14 99 1007.6
20260501183058 62 299 3.0 12.0 0.83 2.57 2.14 99 1007.1
20260501181558 63 151 5.0 8.0 0.57 2.23 1.80 99 1009.5
20260501180056 63 128 1.0 7.0 0.42 2.04 1.62 99 1007.3
20260501174555 63 27 1.0 5.0 0.35 1.94 1.51 99 1008.1
20260501173107 63 1 2.0 10.0 0.17 1.75 1.32 99 1008.9
20260501171603 63 288 2.0 8.0 0.11 1.66 1.23 99 1009.1
20260501170055 63 11 3.0 9.0 0.28 1.63 1.20 99 1009.0
20260501164617 63 44 2.0 8.0 0.32 1.60 1.17 99 1009.7